FW2442 Weather Reports


Display with metric or nautical units.
time (UTC)temp
F
wind
direction
speed
MPH
gust
MPH
rain 1hr
in
rain 24hr
in
rain mn
in
humidity
%
barometer
mb
20260831020521 68 80 7.0 12.0 0.00 0.00 0.00 64 1016.8
20260831015517 68 119 5.0 9.0 0.00 0.00 0.00 63 1016.8
20260831014541 68 155 3.0 12.0 0.00 0.00 0.00 63 1016.9
20260831013517 69 136 6.0 11.0 0.00 0.01 0.00 63 1016.9
20260831012521 69 128 12.0 20.0 0.00 0.01 0.00 62 1017.0
20260831011517 69 54 9.0 14.0 0.00 0.01 0.00 63 1017.0
20260831010521 69 118 8.0 14.0 0.00 0.01 0.00 63 1017.0
20260831005537 69 108 8.0 14.0 0.00 0.01 0.00 63 1016.9
20260831004521 70 128 9.0 12.0 0.00 0.01 0.00 62 1017.0
20260831003517 70 131 10.0 17.0 0.00 0.01 0.00 63 1017.0
20260831002601 69 123 11.0 17.0 0.00 0.01 0.00 64 1017.1
20260831001517 69 117 9.0 13.0 0.00 0.01 0.00 64 1017.1
20260831000521 70 117 10.0 13.0 0.00 0.01 0.00 63 1017.1
20260830235519 70 124 11.0 16.0 0.00 0.01 0.00 64 1017.0
20260830234537 70 113 10.0 16.0 0.00 0.01 0.00 64 1017.1
20260830233537 70 108 10.0 13.0 0.00 0.01 0.00 64 1017.1
20260830232541 70 116 12.0 16.0 0.00 0.01 0.00 64 1017.1
20260830231522 69 109 11.0 19.0 0.00 0.01 0.00 65 1017.1
20260830230522 70 110 14.0 35.0 0.00 0.01 0.00 65 1017.1
20260830225542 70 112 10.0 16.0 0.00 0.01 0.00 66 1017.1
20260830224520 70 108 14.0 17.0 0.00 0.01 0.00 66 1017.0
20260830223520 70 110 13.0 17.0 0.00 0.01 0.00 66 1017.1
20260830222518 70 118 7.0 11.0 0.00 0.01 0.00 67 1017.2
20260830221556 70 108 11.0 19.0 0.00 0.01 0.00 67 1017.2
20260830220518 70 103 10.0 14.0 0.00 0.01 0.00 66 1017.1
20260830215516 70 106 13.0 19.0 0.00 0.01 0.00 66 1017.1
20260830214540 70 106 8.0 12.0 0.00 0.01 0.00 66 1017.1
20260830213536 70 127 3.0 9.0 0.00 0.01 0.00 65 1017.1
20260830212522 71 129 6.0 15.0 0.00 0.01 0.00 64 1017.0
20260830211522 72 108 5.0 9.0 0.00 0.01 0.00 64 1016.9
20260830210520 72 112 10.0 12.0 0.00 0.01 0.00 62 1016.8
20260830205522 72 109 9.0 13.0 0.00 0.01 0.01 62 1016.7
20260830204521 73 104 12.0 17.0 0.00 0.01 0.01 61 1016.8
20260830203521 73 106 12.0 18.0 0.00 0.01 0.01 61 1016.8
20260830202521 73 108 9.0 11.0 0.00 0.01 0.01 61 1016.7
20260830201517 73 96 9.0 12.0 0.00 0.01 0.01 61 1016.7
20260830200521 72 104 7.0 9.0 0.00 0.01 0.01 62 1016.6
20260830195522 72 116 4.0 5.0 0.00 0.01 0.01 62 1016.5
20260830194519 73 110 0.0 4.0 0.00 0.01 0.01 62 1016.6
20260830193517 73 0.0 0.0 0.00 0.01 0.01 61 1016.5
20260830192522 73 121 6.0 9.0 0.00 0.01 0.01 61 1016.5
20260830191521 74 126 4.0 7.0 0.00 0.01 0.01 61 1016.5
20260830190520 74 119 6.0 9.0 0.00 0.01 0.01 60 1016.5
20260830185520 75 112 9.0 13.0 0.00 0.01 0.01 59 1016.5
20260830184522 75 112 6.0 9.0 0.00 0.01 0.01 58 1016.5
20260830183517 76 128 7.0 14.0 0.00 0.01 0.01 57 1016.4
20260830182519 76 132 8.0 12.0 0.00 0.01 0.01 57 1016.3
20260830181520 76 121 10.0 15.0 0.00 0.01 0.01 57 1016.3
20260830180601 76 122 8.0 12.0 0.00 0.01 0.01 58 1016.2
20260830175520 76 121 7.0 10.0 0.00 0.01 0.01 58 1016.0
20260830174520 77 126 8.0 12.0 0.00 0.01 0.01 58 1016.1
20260830173521 77 120 7.0 9.0 0.00 0.01 0.01 59 1016.0
20260830172540 77 121 9.0 14.0 0.00 0.01 0.01 58 1015.8
20260830171521 78 125 8.0 11.0 0.00 0.01 0.01 58 1015.8
20260830170520 79 120 10.0 15.0 0.00 0.01 0.01 57 1015.7
20260830165540 79 110 11.0 17.0 0.00 0.01 0.01 56 1015.5
20260830164520 80 109 11.0 15.0 0.00 0.01 0.01 55 1015.5
20260830163520 80 103 10.0 15.0 0.00 0.01 0.01 55 1015.5
20260830162541 80 109 7.0 10.0 0.00 0.01 0.01 55 1015.4
20260830161519 81 117 6.0 12.0 0.00 0.01 0.01 54 1015.4
20260830160521 81 118 7.0 11.0 0.00 0.01 0.01 53 1015.4
20260830155520 81 110 6.0 9.0 0.00 0.01 0.01 53 1015.5
20260830154521 81 121 8.0 14.0 0.00 0.01 0.01 52 1015.5
20260830153520 82 128 10.0 15.0 0.00 0.01 0.01 52 1015.5
20260830152519 83 123 9.0 21.0 0.00 0.01 0.01 51 1015.5
20260830151540 83 123 7.0 12.0 0.00 0.01 0.01 49 1015.5
20260830150520 84 115 15.0 23.0 0.00 0.01 0.01 48 1015.5
20260830145520 84 122 13.0 23.0 0.00 0.01 0.01 48 1015.5
20260830144520 84 132 13.0 20.0 0.00 0.01 0.01 47 1015.4
20260830143520 85 125 14.0 23.0 0.00 0.01 0.01 46 1015.4
20260830142520 85 119 12.0 19.0 0.00 0.01 0.01 47 1015.4
20260830141521 86 137 13.0 20.0 0.00 0.01 0.01 46 1015.3
20260830140521 86 113 14.0 30.0 0.00 0.01 0.01 45 1015.4
20260830135520 86 127 10.0 22.0 0.00 0.01 0.01 46 1015.5
20260830134540 85 108 14.0 23.0 0.00 0.01 0.01 46 1015.6
20260830133519 85 127 12.0 23.0 0.00 0.01 0.01 45 1015.6
20260830132535 86 134 11.0 21.0 0.00 0.01 0.01 44 1015.6
20260830131518 86 152 10.0 18.0 0.00 0.01 0.01 43 1015.6
20260830130519 86 153 17.0 30.0 0.00 0.01 0.01 43 1015.7
20260830125519 86 129 18.0 28.0 0.00 0.01 0.01 43 1015.8
20260830124539 86 134 13.0 18.0 0.00 0.01 0.01 45 1015.8
20260830123516 86 124 21.0 34.0 0.00 0.01 0.01 44 1015.9
20260830122520 86 133 14.0 25.0 0.00 0.01 0.01 44 1016.1
20260830121540 85 149 13.0 19.0 0.00 0.01 0.01 47 1016.2
20260830120520 84 126 10.0 17.0 0.00 0.01 0.01 48 1016.2
20260830115520 84 133 10.0 20.0 0.00 0.01 0.01 49 1016.4
20260830114520 84 111 17.0 26.0 0.00 0.01 0.01 49 1016.5
20260830113520 83 152 10.0 17.0 0.00 0.01 0.01 52 1016.6
20260830112516 83 128 12.0 21.0 0.00 0.01 0.01 52 1016.7
20260830111600 84 122 18.0 26.0 0.00 0.01 0.01 51 1016.8
20260830110517 84 113 17.0 27.0 0.00 0.01 0.01 52 1016.9
20260830105541 84 156 14.0 30.0 0.00 0.01 0.01 53 1016.9
20260830104516 83 129 10.0 18.0 0.00 0.01 0.01 53 1017.1
20260830103539 83 112 13.0 22.0 0.00 0.01 0.01 53 1017.1
20260830102520 83 128 18.0 30.0 0.00 0.01 0.01 53 1017.2
20260830101538 83 111 17.0 29.0 0.00 0.01 0.01 53 1017.2
20260830100519 82 86 11.0 19.0 0.00 0.01 0.01 52 1017.2
20260830095537 82 185 16.0 28.0 0.00 0.01 0.01 52 1017.4
20260830094519 82 168 10.0 19.0 0.00 0.01 0.01 55 1017.4
20260830093519 81 196 10.0 15.0 0.00 0.01 0.01 55 1017.5
20260830092539 81 81 8.0 15.0 0.00 0.01 0.01 55 1017.5
20260830091539 81 128 8.0 19.0 0.00 0.01 0.01 57 1017.6
20260830090517 80 148 10.0 13.0 0.00 0.01 0.01 56 1017.7
20260830085518 80 158 10.0 17.0 0.00 0.01 0.01 57 1017.7
20260830084538 81 113 7.0 11.0 0.00 0.01 0.01 57 1017.7
20260830083600 79 83 8.0 21.0 0.00 0.01 0.01 60 1017.8
20260830082520 79 49 8.0 12.0 0.00 0.01 0.01 63 1017.8
20260830081519 78 136 6.0 14.0 0.00 0.01 0.01 64 1017.9
20260830080517 77 104 9.0 21.0 0.00 0.01 0.01 65 1018.0
20260830075520 76 193 7.0 11.0 0.00 0.01 0.01 67 1017.9
20260830074516 76 203 6.0 11.0 0.00 0.01 0.01 67 1017.9
20260830073519 75 96 7.0 18.0 0.00 0.01 0.01 68 1017.9
20260830072520 74 180 8.0 13.0 0.00 0.01 0.01 71 1017.9
20260830071520 74 197 9.0 16.0 0.00 0.01 0.01 70 1017.7
20260830070517 73 237 5.0 11.0 0.00 0.01 0.01 72 1017.8
20260830065519 71 73 6.0 13.0 0.00 0.01 0.01 76 1017.8
20260830064517 69 6 3.0 7.0 0.00 0.01 0.01 79 1017.7
20260830063519 68 357 6.0 11.0 0.00 0.01 0.01 81 1017.6
20260830062537 68 274 6.0 12.0 0.00 0.01 0.01 83 1017.6
20260830061518 67 329 7.0 13.0 0.00 0.01 0.01 83 1017.6
20260830060517 67 325 8.0 12.0 0.00 0.01 0.01 85 1017.6
20260830055519 67 349 7.0 11.0 0.00 0.01 0.01 85 1017.5
20260830054516 67 340 7.0 12.0 0.00 0.01 0.01 85 1017.5
20260830053519 67 4 7.0 11.0 0.00 0.01 0.01 85 1017.5
20260830052517 67 337 7.0 13.0 0.00 0.01 0.01 86 1017.4
20260830051538 67 296 5.0 9.0 0.00 0.01 0.01 86 1017.4
20260830050518 67 286 4.0 7.0 0.00 0.01 0.01 86 1017.5
20260830045518 66 265 3.0 7.0 0.00 0.01 0.01 87 1017.3
20260830044518 65 322 5.0 9.0 0.00 0.01 0.01 88 1017.3
20260830043518 65 346 6.0 13.0 0.00 0.01 0.01 88 1017.2
20260830042518 64 348 8.0 13.0 0.00 0.01 0.01 88 1017.0
20260830041538 64 10 4.0 12.0 0.00 0.01 0.01 89 1017.2
20260830040517 64 11 5.0 9.0 0.00 0.01 0.01 88 1017.0
20260830035519 64 17 6.0 10.0 0.00 0.01 0.01 87 1017.0
20260830034517 64 337 4.0 9.0 0.00 0.01 0.01 87 1017.1
20260830033519 64 67 2.0 6.0 0.00 0.01 0.01 86 1017.2
20260830032517 64 330 7.0 11.0 0.00 0.01 0.01 85 1017.1
20260830031539 64 221 2.0 6.0 0.00 0.01 0.01 85 1017.0
20260830030517 65 121 2.0 6.0 0.00 0.01 0.01 83 1016.8
20260830025519 64 106 9.0 12.0 0.00 0.01 0.01 85 1016.9
20260830024517 64 80 3.0 5.0 0.00 0.01 0.01 86 1016.8
20260830023539 65 317 3.0 7.0 0.01 0.01 0.01 84 1016.6
20260830022518 65 102 7.0 13.0 0.01 0.01 0.01 82 1016.4
20260830021520 65 72 8.0 15.0 0.01 0.01 0.01 83 1016.4